Location: Siratepeler Tepesi
(39.1042°N, 32.0781°E)
Time: 05:34:40
(UTC+00:00)

Cosmos 2327 Rocket - Pass Details

Date: 11 April 2026
Orbit: 944 x 1006 km, 83.0° (Epoch: 9 May)

Event Time Altitude Azimuth Distance (km) Brightness Sun altitude
Exits shadow 17:53:44 - 175° (S) 3,425 7.1 -17.1°
Reaches altitude 10° 17:55:45 10° 173° (S) 2,671 6.5 -17.4°
Maximum altitude 18:01:46 65° 93° (E) 1,055 4.4 -18.4°
Drops below altitude 10° 18:07:55 10° 13° (NNE) 2,727 7.0 -19.5°
Sets 18:10:29 0° 11° (N) 3,688 7.8 -19.9°
